User: anonymous   Login
Location: Unspecified
(0.0000°N, 0.0000°E)
Time: 11:54:47
(UTC+00:00)
Language:

FAISAT-2V - Orbit

View from above orbital plane
View from above orbital plane
View from above satellite
View from above satellite

Ground track
Ground track

The orbit data is extracted from the following two-line orbital elements,

1 24954U 97052B   18346.88856609 +.00000055 +00000-0 +37410-4 0  9998
2 24954 082.9240 239.7896 0040628 106.8557 301.8182 13.79979640068616
Epoch (UTC): 12 December 2018 21:19:32
Eccentricity: 0.0040628
inclination: 82.9240°
perigee height: 934 km
apogee height: 994 km
right ascension of ascending node: 239.7896°
argument of perigee: 106.8557°
revolutions per day: 13.79979640
mean anomaly at epoch: 301.8182°
orbit number at epoch: 6861

The dashed part of the orbit path shows where the satellite is in the earth's shadow,  

DLR